Current Version              Previous Version:    01  02  03  04  05  06  07  08  09  10  11  12  13  14  15  16  17  18  19  20  21  22  23  24  25  26  27  28  29  30  
   31  32  33  34  35  36  37  38  39  40  41  42  43  44  45  46  47  48  49  50  51  52  53  54  55  56  57  58  59  60  

[Printable]
875
ASUS44 KLUB 301110
RWRTX
WEST TEXAS WEATHER ROUNDUP
NATIONAL WEATHER SERVICE LUBBOCK TX
600 AM CDT THU OCT 30 2014

NOTE: "FAIR" INDICATES FEW OR NO CLOUDS BELOW 12,000 FEET WITH NO
SIGNIFICANT WEATHER AND/OR OBSTRUCTIONS TO VISIBILITY.

TXZ004-006>008-010-012-014-016-OKZ002-301200-
TEXAS PANHANDLE/OKLAHOMA PANHANDLE

CITY           SKY/WX    TMP DP  RH WIND       PRES   REMARKS
AMARILLO       CLEAR     48  45  89 S8        30.11S
BORGER         CLEAR     51  44  77 S5        30.11S
CANADIAN       CLEAR     44  40  86 CALM      30.11R
DALHART        CLEAR     48  34  58 N16       30.15R
DUMAS            N/A     38  36  91 NW9       30.14R WCI  32
GUYMON         CLEAR     43  38  82 NW9       30.13R
HEREFORD       CLEAR     45  43  93 MISG      30.12R
PAMPA          CLEAR     50  42  73 W6        30.12R
PERRYTON       CLEAR     47  39  75 W3        30.12S
$$

TXZ026-029-035-045-048-301200-
SOUTHERN PANHANDLE/SOUTH PLAINS/ROLLING PLAINS

CITY           SKY/WX    TMP DP  RH WIND       PRES   REMARKS
CHILDRESS      CLEAR     52  41  66 S6        30.10S
SEMINOLE       CLEAR     50  48  92 CALM      30.13S
LUBBOCK        CLEAR     50  46  86 SW6       30.10F
PLAINVIEW      CLEAR     42  40  92 CALM      30.10R
SNYDER         CLEAR     53  51  91 S5        30.11S
$$

TXZ052-054-060>062-072-078-127-140-154-169-301200-
PERMIAN BASIN/CONCHO VALLEY/BIG COUNTRY/EDWARDS PLATEAU

CITY           SKY/WX    TMP DP  RH WIND       PRES   REMARKS
ABILENE        CLEAR     59  50  72 S7        30.11S
BIG SPRING     CLEAR     59  55  89 S6        30.12F
BRADY          CLEAR     57  55  94 SE5       30.11S
BROWNWOOD      CLOUDY    54  50  87 CALM      30.12S
JUNCTION       CLEAR     59  56  89 NE6       30.12S
MIDLAND        CLEAR     58  54  86 S6        30.10F
ODESSA         CLEAR     56  52  86 S5        30.11F
SAN ANGELO     CLEAR     58  55  90 CALM      30.10S
SONORA         CLEAR     61  59  94 CALM      30.16R
SWEETWATER     CLEAR     59  56  88 S9        30.13S
WINK           CLEAR     50  45  83 N3        30.09F
$$

TXZ055-058-074-075-080-082-301200-
FAR WEST/SOUTHWEST MOUNTAINS/TRANS PECOS

CITY           SKY/WX    TMP DP  RH WIND       PRES   REMARKS
ALPINE         CLEAR     53  50  89 SW3       30.25R
DRYDEN           N/A     62  60  93 N7        30.09R
EL PASO        CLEAR     53  43  68 N6        30.16R
FORT STOCKTON  CLEAR     58  55  90 SW8       30.12S
GUADALUPE PASS CLEAR     53  43  68 SW10      30.23S
MARFA          CLEAR     46  45  93 N6        30.23S
PECOS          CLEAR     51  48  90 W6        30.10F
PRESIDIO       FAIR      66  55  67 MISG      30.11S
$$

TXZ014-016-019-021>030-083-301200
TEXAS TECH WEST TEXAS MESONET/TEXAS PANHANDLE/NORTHERN SOUTH PLAINS

CITY           SKY/WX    TMP DP  RH WIND       PRES   REMARKS
ABERNATHY 5ENE   N/A     44  42  93 SW7       30.11S
AMARILLO 9NNE    N/A     45  43  91 W3        30.11R
AMARILLO 7SSE    N/A     43  42  94 S3        30.12R
AMHERST 1NE      N/A     46  44  91 W5        30.12R
BOOTLEG 11WNW    N/A     46  39  74 NW10      30.15R
CANADIAN 6E      N/A     54  39  58 W2        30.09S
CAPROCK CYN SP   N/A     51  44  76 NW1       30.10R
CHILDRESS 2NNE   N/A     52  41  65 SW1       30.09R
CLARENDON 2WSW   N/A     44  38  78 CALM      30.10S
CLAUDE 12SW      N/A     50  43  77 S7        30.10F
DIMMITT 2NE      N/A     46  43  90 SW7       30.11S
FLOYDADA 2NNE    N/A     49  44  83 S7        30.10S
FRIONA 2NE       N/A     41  40  93 W7        30.13S
GOODLETT 3W      N/A     52  42  67 CALM      30.08R
HART 3N          N/A     44  42  93 SW7       30.11S
HEREFORD 2NW     N/A     43  39  87 SW7       30.11S
MCLEAN 1E        N/A     51  40  66 S5        30.08F
MEMPHIS 1NE      N/A     45  40  81 N1        30.09S
MULESHOE 2SSW    N/A     35  35  96 W5        30.13R WCI  31
OLTON 6S         N/A     44  41  90 W5        30.12R
PALO DURO SP     N/A     51  45  79 S6        30.12S
PAMPA 2E         N/A     49  41  75 S6        30.11R
PLAINVIEW 1S     N/A     44  42  95 W2        30.11R
SILVERTON 7ESE   N/A     47  43  84 W8        30.10R
TULIA 2ENE       N/A     47  44  90 SW8       30.10S
TURKEY 2WSW      N/A     51  43  73 CALM      30.09R
UMBARGER 3NNE    N/A     44  42  91 SW8       30.11R
$$

TXZ033>036-039>041-045>048-301200
TEXAS TECH WEST TEXAS MESONET/SOUTH PLAINS

CITY           SKY/WX    TMP DP  RH WIND       PRES   REMARKS
AIKEN 3WSW       N/A     42  41  94 W3        30.12R
ANDREWS 2NE      N/A     52  49  90 SW1       30.12S
ANTON 6SSW       N/A     44  42  93 SW2       30.11S
BROWNFIELD 2S    N/A     48  45  90 SW6       30.11S
DENVR CTY 7WNW   N/A     48  46  92 SW6       30.12F
GAIL 2ESE        N/A     52  49  90 S5        30.09F
LAMESA 2SE       N/A     50  49  94 W3        30.12S
LEVELLAND 4S     N/A     48  45  90 SW8       30.11S
LUBBOCK 3WNW     N/A     51  47  86 SW2       30.10F
MORTON 1ENE      N/A     45  44  97 W7        30.12R
ODONNELL 1N      N/A     49  46  92 SW5       30.11S
PLAINS 3N        N/A     46  45  94 SW5       30.12S
RALLS 1SE        N/A     50  45  83 SW3       30.11S
REESE CENTER     N/A     46  43  90 S5        30.10F
SEMINOLE 2NNE    N/A     49  47  90 W3        30.12S
SLATON 2NE       N/A     53  49  89 SW7       30.10S
SNYDER 3E        N/A     54  52  92 S8        30.09F
SUNDOWN 8SW      N/A     46  44  93 SW9       30.11S
TAHOKA 3NNE      N/A     50  48  93 SW7       30.10F
WOLFFORTH 6SSW   N/A     47  46  95 SW5       30.11S
$$

TXZ031-032-036>038-042>044-301200-
TEXAS TECH WEST TEXAS MESONET/ROLLING PLAINS

CITY           SKY/WX    TMP DP  RH WIND       PRES   REMARKS
ASPERMONT 3NE    N/A     50  46  86 S2        30.09S
FLUVANNA 3WNW    N/A     53  49  89 S6        30.09F
GRAHAM 5SSW      N/A     55  51  85 SW9       30.10S
GUTHRIE 10WSW    N/A     52  44  74 CALM      30.08S
HASKELL 1NW      N/A     57  46  67 SE6       30.09S
JAYTON 1SSE      N/A     49  44  84 W2        30.09S
KNOX CITY 3NW    N/A     52  44  73 SE3       30.10R
LK A HENRY 1NW   N/A     51  49  93 W2        30.09S
NORTHFIELD 1S    N/A     52  44  73 S2        30.08S
ODELL 4ENE       N/A     54  43  66 S8        30.10S
PADUCAH 10SW     N/A     49  42  78 S5        30.08S
POST 1NE         N/A     55  50  85 S2        30.09F
RRING SPRGS 3N   N/A     50  46  85 SW7       30.08S
SEYMOUR 3NW      N/A     56  44  66 S6        30.09S
SPUR 1W          N/A     46  42  86 NW2       30.08S
WHITE RVR 6NE    N/A     57  42  57 S2        30.09S
$$

TXZ052-054-060>062-072-078-127-140-154-169-301200-
TEXAS TECH WEST TEXAS MESONET/PERMIAN BASIN/
CONCHO VALLEY/BIG COUNTRY/EDWARDS PLATEAU

CITY           SKY/WX    TMP DP  RH WIND       PRES   REMARKS
COYANOSA 2N      N/A     54  50  87 SW7       30.10F
JUNCTION 1SSW    N/A     56  54  95 N1        30.13R
MERTZON 3NNE     N/A     54  52  94 CALM      30.12S
SAN ANGELO 7NW   N/A     56  52  87 NE1       30.11S
STRLNG CT 4WSW   N/A     53  52  96 E2        30.12S
ST LAWRNCE 5SW   N/A     52  51  97 SE3       30.11S
SWEETWATR 11SW   N/A     57  54  89 SE10      30.11F
WALL 1E          N/A     55  51  86 CALM      30.11S
$$

TXZ055-058-074-075-080-082-301200-
TEXAS TECH WEST TEXAS MESONET/FAR WEST/SOUTHWEST MOUNTAINS/TRANS PECOS

CITY           SKY/WX    TMP DP  RH WIND       PRES   REMARKS
PRSMN GAP BBNP   N/A     61  58  89 CALM      30.12S
GUADLPE MTN NP   N/A     63  37  38 NW20      30.21F
$$